Location: Oberkirch
(48.5323°N, 8.0787°E)
Time: 05:58:22
(UTC+00:00)

CENTAUR R/B - Pass Details

Date: 08 November 2025
Orbit: 633 x 1547 km, 63.4° (Epoch: 10 December)

Event Time Altitude Azimuth Distance (km) Brightness Sun altitude
Exits shadow 03:52:06 18° 330° (NNW) 2,568 4.4 -25.4°
Maximum altitude 03:56:39 31° 19° (NNE) 2,119 4.4 -24.7°
Drops below altitude 10° 04:04:15 10° 79° (ENE) 3,576 6.5 -23.4°
Sets 04:07:54 0° 89° (E) 4,637 7.5 -22.8°
